TimeMDT,TemperatureF,Dew PointF,Humidity,Sea Level PressureIn,VisibilityMPH,Wind Direction,Wind SpeedMPH,Gust SpeedMPH,PrecipitationIn,Events,Conditions,WindDirDegrees,DateUTC
12:53 AM,32.0,26.1,79,30.18,10.0,West,11.5,-,N/A,,Clear,280,2013-10-06 06:53:00
1:53 AM,30.9,27.0,85,30.19,10.0,West,11.5,-,N/A,,Clear,270,2013-10-06 07:53:00
2:53 AM,30.9,27.0,85,30.18,10.0,West,10.4,-,N/A,,Clear,280,2013-10-06 08:53:00
3:53 AM,30.9,27.0,85,30.17,10.0,West,9.2,-,N/A,,Clear,280,2013-10-06 09:53:00
4:53 AM,35.1,28.0,76,30.14,10.0,WNW,15.0,-,N/A,,Clear,290,2013-10-06 10:53:00
5:53 AM,36.0,28.9,76,30.16,10.0,WNW,17.3,-,N/A,,Clear,300,2013-10-06 11:53:00
6:53 AM,37.0,28.9,73,30.15,10.0,WNW,16.1,-,N/A,,Clear,300,2013-10-06 12:53:00
7:53 AM,39.9,30.0,68,30.16,10.0,WNW,15.0,-,N/A,,Clear,300,2013-10-06 13:53:00
8:53 AM,46.0,32.0,58,30.15,10.0,WNW,23.0,-,N/A,,Clear,300,2013-10-06 14:53:00
9:53 AM,51.1,33.1,50,30.16,10.0,NW,24.2,32.2,N/A,,Clear,320,2013-10-06 15:53:00
10:53 AM,54.0,35.1,49,30.18,10.0,NW,23.0,28.8,N/A,,Clear,310,2013-10-06 16:53:00
11:53 AM,55.9,36.0,47,30.17,10.0,NW,24.2,29.9,N/A,,Clear,320,2013-10-06 17:53:00
12:53 PM,57.9,37.0,46,30.16,10.0,NW,17.3,27.6,N/A,,Clear,320,2013-10-06 18:53:00
1:53 PM,60.1,37.9,44,30.15,10.0,NW,18.4,-,N/A,,Clear,320,2013-10-06 19:53:00
2:53 PM,60.1,37.9,44,30.16,10.0,NW,18.4,24.2,N/A,,Clear,320,2013-10-06 20:53:00
3:53 PM,59.0,37.9,46,30.16,10.0,NW,18.4,24.2,N/A,,Clear,310,2013-10-06 21:53:00
4:53 PM,57.9,36.0,44,30.16,10.0,NW,15.0,-,N/A,,Clear,320,2013-10-06 22:53:00
5:53 PM,55.0,36.0,49,30.17,10.0,NW,6.9,-,N/A,,Clear,320,2013-10-06 23:53:00
6:53 PM,46.9,36.0,66,30.19,10.0,NW,3.5,-,N/A,,Clear,310,2013-10-07 00:53:00
7:53 PM,45.0,35.1,68,30.18,10.0,Calm,Calm,-,N/A,,Clear,0,2013-10-07 01:53:00
8:53 PM,41.0,34.0,76,30.17,10.0,West,3.5,-,N/A,,Clear,280,2013-10-07 02:53:00
9:53 PM,36.0,32.0,86,30.16,10.0,Calm,Calm,-,N/A,,Clear,0,2013-10-07 03:53:00
10:53 PM,34.0,30.9,89,30.17,10.0,Calm,Calm,-,N/A,,Clear,0,2013-10-07 04:53:00
11:53 PM,37.0,32.0,82,30.14,10.0,West,3.5,-,N/A,,Clear,260,2013-10-07 05:53:00